Location: Cruquius
(52.3348°N, 4.6319°E)
Time: 08:29:29
(UTC+00:00)

Meteor 2-4 Rocket - Pass Details

Date: 12 May 2021
Orbit: 799 x 909 km, 81.2° (Epoch: 20 June)

Event Time Altitude Azimuth Distance (km) Brightness Sun altitude
Exits shadow 22:35:53 30° 151° (SSE) 1,510 4.4 -18.0°
Maximum altitude 22:38:22 49° 95° (E) 1,098 4.1 -18.1°
Drops below altitude 10° 22:43:44 10° 22° (NNE) 2,472 6.9 -18.3°
Sets 22:46:11 0° 17° (NNE) 3,394 7.9 -18.4°
